This is the latest recevied weather packets stored in our database for station/object IU5JAE-13. If no packets are shown the sender has not sent any weather packets the latest 10 day(s).
| Time | Temp. | Humidity | Pressure | Rain* | Wind** | Luminosity | Snow |
|---|---|---|---|---|---|---|---|
| 1788142832 | 18.33° C | 85% | 1016.9 hPa | 0 mm | - | 0 W/m² | - |
| 1788142230 | 18.33° C | 85% | 1017.2 hPa | 0 mm | - | 0 W/m² | - |
| 1788141627 | 18.33° C | 85% | 1017.2 hPa | 0 mm | - | 0 W/m² | - |
| 1788141037 | 18.89° C | 85% | 1017.2 hPa | 0 mm | - | 0 W/m² | - |
| 1788140422 | 18.33° C | 85% | 1017.3 hPa | 0 mm | - | 0 W/m² | - |
| 1788139820 | 18.89° C | 84% | 1017.4 hPa | 0 mm | - | 0 W/m² | - |
| 1788139217 | 18.33° C | 86% | 1017.3 hPa | 0 mm | - | 0 W/m² | - |
| 1788138635 | 18.89° C | 84% | 1017.2 hPa | 0 mm | - | 0 W/m² | - |
| 1788138033 | 18.89° C | 84% | 1017.3 hPa | 0 mm | - | 0 W/m² | - |
| 1788137430 | 18.89° C | 84% | 1017.3 hPa | 0 mm | - | 0 W/m² | - |
| 1788136828 | 18.89° C | 84% | 1017.3 hPa | 0 mm | - | 0 W/m² | - |
| 1788136225 | 18.89° C | 84% | 1017.4 hPa | 0 mm | - | 0 W/m² | - |
| 1788135623 | 19.44° C | 83% | 1017.3 hPa | 0 mm | - | 0 W/m² | - |
| 1788135021 | 19.44° C | 83% | 1017.4 hPa | 0 mm | - | 0 W/m² | - |
| 1788134418 | 19.44° C | 83% | 1017.4 hPa | 0 mm | - | 0 W/m² | - |
| 1788133816 | 19.44° C | 83% | 1017.3 hPa | 0 mm | - | 0 W/m² | - |
| 1788133233 | 19.44° C | 83% | 1017.4 hPa | 0 mm | - | 0 W/m² | - |
| 1788132631 | 19.44° C | 83% | 1017.3 hPa | 0 mm | - | 0 W/m² | - |
| 1788132028 | 19.44° C | 83% | 1017.4 hPa | 0 mm | - | 0 W/m² | - |
| 1788131426 | 19.44° C | 83% | 1017.4 hPa | 0 mm | - | 0 W/m² | - |
| 1788130824 | 19.44° C | 83% | 1017.4 hPa | 0 mm | - | 0 W/m² | - |
| 1788130221 | 19.44° C | 83% | 1017.5 hPa | 0 mm | - | 0 W/m² | - |
| 1788129619 | 20° C | 82% | 1017.3 hPa | 0 mm | - | 0 W/m² | - |
| 1788129016 | 19.44° C | 82% | 1017.4 hPa | 0 mm | - | 0 W/m² | - |
| 1788128434 | 19.44° C | 83% | 1017.3 hPa | 0 mm | - | 0 W/m² | - |
* Rain latest hour (hover to see other rain measurements)
** Current wind speed in m/s (hover to see current wind gust speed)